Zurück zum Katalog

FENGYUN 1C DEB

AktivSSO
NORAD 31085·DEBRIS·🇨🇳 China

Gestartet May 10, 1999 von Taiyuan Satellite Launch Center

Loading…

Nächste Überflüge (nächste 24 Stunden)

TLE

AktuellSource: Space-Track

Epoche: Sep 14, 2026, 01:44 UTC

1 31085U 99025BGF 26257.07227388  .00000101  00000-0  55027-4 0  9996
2 31085  98.9592 111.5460 0085928 297.4220 216.0124 14.30450864 16522

Verfolge FENGYUN 1C DEB in Echtzeit mit AllMySat

Download on the App Store